This is the latest recevied weather packets stored in our database for station/object KG7FOQ-13. If no packets are shown the sender has not sent any weather packets the latest 10 day(s).
| Time | Temp. | Humidity | Pressure | Rain* | Wind** | Luminosity | Snow |
|---|---|---|---|---|---|---|---|
| 1778013205 | 18.89° C | 32% | 1008.9 hPa | 0 mm | - | - | - |
| 1778012904 | 18.89° C | 33% | 1009 hPa | 0 mm | - | - | - |
| 1778012604 | 18.89° C | 33% | 1009 hPa | 0 mm | - | - | - |
| 1778012305 | 18.33° C | 32% | 1009.1 hPa | 0 mm | - | - | - |
| 1778012003 | 18.89° C | 33% | 1009 hPa | 0 mm | - | - | - |
| 1778011747 | 18.33° C | 33% | 1009.1 hPa | 0 mm | - | - | - |
| 1778011702 | 18.33° C | 33% | 1009.1 hPa | 0 mm | - | - | - |
| 1778011402 | 18.89° C | 34% | 1009.2 hPa | 0 mm | - | - | - |
| 1778011151 | 18.33° C | 33% | 1009.2 hPa | 0 mm | - | - | - |
| 1778011103 | 18.33° C | 33% | 1009.2 hPa | 0 mm | - | - | - |
| 1778010833 | 17.78° C | 34% | 1009.3 hPa | 0 mm | - | - | - |
| 1778010801 | 17.78° C | 34% | 1009.3 hPa | 0 mm | - | - | - |
| 1778010501 | 17.78° C | 35% | 1009.2 hPa | 0 mm | - | - | - |
| 1778010198 | 17.78° C | 35% | 1009.3 hPa | 0 mm | - | - | - |
| 1778009897 | 17.78° C | 34% | 1009.3 hPa | 0 mm | - | - | - |
| 1778009597 | 17.78° C | 36% | 1009.3 hPa | 0 mm | - | - | - |
| 1778009447 | 17.22° C | 38% | 1009.5 hPa | 0 mm | - | - | - |
| 1778009296 | 17.22° C | 38% | 1009.5 hPa | 0 mm | - | - | - |
| 1778008996 | 17.78° C | 38% | 1009.5 hPa | 0 mm | - | - | - |
| 1778008738 | 18.33° C | 39% | 1009.5 hPa | 0 mm | - | - | - |
| 1778008695 | 18.33° C | 39% | 1009.5 hPa | 0 mm | - | - | - |
| 1778008395 | 17.22° C | 38% | 1009.3 hPa | 0 mm | - | - | - |
| 1778008094 | 17.22° C | 38% | 1009.3 hPa | 0 mm | - | - | - |
| 1778007793 | 17.22° C | 39% | 1009.3 hPa | 0 mm | - | - | - |
| 1778007493 | 17.22° C | 43% | 1009.3 hPa | 0 mm | - | - | - |
* Rain latest hour (hover to see other rain measurements)
** Current wind speed in m/s (hover to see current wind gust speed)